Location: Bli��� Lhota
(48.7570°N, 14.0120°E)
Time: 06:05:05
(UTC+00:00)

Resurs 01 Rocket - Pass Details

Date: 18 September 2020
Orbit: 633 x 645 km, 98.0° (Epoch: 22 October)

Event Time Altitude Azimuth Distance (km) Brightness Sun altitude
Exits shadow 17:41:42 - 84° (E) 2,332 3.9 -6.1°
Reaches altitude 10° 17:44:05 10° 56° (ENE) 2,051 3.8 -6.5°
Maximum altitude 17:44:17 10° 54° (NE) 2,049 3.8 -6.5°
Drops below altitude 10° 17:44:28 10° 51° (NE) 2,051 3.8 -6.5°
Sets 17:49:15 0° 5° (N) 2,967 5.1 -7.3°
